OPS 4682 DEB, 20031

Orbit data source: Space-Track

OPS 4682 DEB, 20031 is space debris in LEO originally from a launch on Sat, 03 Apr 1965 UTC launched from the Air Force Western Test Range (AFWTR). Debris objects in space refer to the collection of defunct objects orbiting the Earth. Examples of debris include non-operational satellites, rocket bodies, and fragments generated from explosions, collisions, or faulty payload assembly.

Loading next visibility...
Identifier
20031, 1965-027BB
Orbit
LEO
Country
Flag of USUS
Related business
Manufacturer
Unknown
Mission
Spacecraft
Bus & Motor
Unknown
Mass
Unknown
Launch date (UTC)
1965-04-03 (61 years ago)
Launch vehicle
Unknown
Launch site
Air Force Western Test Range (AFWTR)
Object type
Payload
Rocket body
Debris
Shape & HBR
Unknown shape, 0.1 m
Radar Cross Section
Small (<0.1 m²)

Expand to show TLE details & history
Last TLE update: 14 hours ago

TLE from 14 hours ago
0 OPS 4682 DEB
1 20031U 65027BB  26035.84136526 -.00000118  00000-0 -42925-3 0  9994
2 20031  90.2323 356.4801 0034165  44.4712  19.0420 12.97886251750046
Epoch: 2026-02-04T20:11Z
TLE epoch observation values (Epoch: 2026-02-04T20:11:33.958Z)
Latitude
63.7227°
Longitude
-81.88168°
Altitude
1,256.726 km
Speed
7.244 km/s
True Right ascension
23h 44m 02s
True Declination
63° 35' 42"
Sunlit
Object was in daylight at epoch
Visualization orbit readout
Latitude
Unknown
Longitude
Unknown
Altitude
Unknown
Speed
Unknown
Apparent Right ascension
Unknown
Apparent Declination
Unknown
Sunlit
N/A
Visualization observer readout
Local Sidereal Time
12:03:30
Azimuth
Unknown
Elevation
Unknown
Doppler factor
Unknown
Orbital elements
Apogee altitude
1,293.631 km
Perigee altitude
1,241.388 km
Semi-major axis
7,645.647 km
Eccentricity
0.00342
Inclination
90.2323°
RAAN
356.4801°
Arg. of periapsis
44.4712°
True anomaly
19.17025°
Mean anomaly
19.042°
Eccentric anomaly
19.10607°
Mean motion
3.24655 °/min
Orbital period
110.89 mins
BSTAR
-0.00042925
Loading maneuver chart data...
Computing Atmospheric mass density...
Loading historical data...
Loading historical data...
Loading historical data...
Loading historical data...
Loading historical data...
Loading historical data...
Loading historical data...

Documentation

Showing up to 5 results
|